DW0000 Weather Reports


Display with metric or nautical units.
time (UTC)temp
F
wind
direction
speed
MPH
gust
MPH
rain 1hr
in
rain 24hr
in
rain mn
in
humidity
%
barometer
mb
20260502163006 51 105 1.0 2.0 0.00 0.00 0.00 88 1032.8
20260502162508 51 183 1.0 6.0 0.00 0.00 0.00 88 1033.1
20260502162007 50 178 2.0 5.0 0.00 0.00 0.00 87 1032.9
20260502161506 50 324 2.0 2.0 0.00 0.00 0.00 87 1032.9
20260502150508 49 25 2.0 3.0 0.00 0.00 0.00 88 1033.1
20260502130506 51 324 1.0 2.0 0.00 0.00 0.00 84 1033.4
20260502123506 51 340 3.0 5.0 0.00 0.00 0.00 83 1033.4
20260502122506 52 333 2.0 2.0 0.00 0.00 0.00 83 1033.5
20260502122006 52 273 1.0 2.0 0.00 0.00 0.00 83 1033.4
20260502121506 52 293 1.0 2.0 0.00 0.00 0.00 83 1033.3
20260502121006 53 313 2.0 2.0 0.00 0.00 0.00 83 1033.2
20260502115505 53 12 1.0 2.0 0.00 0.00 0.00 82 1033.2
20260502114507 53 352 2.0 2.0 0.00 0.00 0.00 82 1033.3
20260502111508 54 47 2.0 2.0 0.00 0.00 0.00 83 1033.1
20260502110006 54 54 2.0 3.0 0.00 0.00 0.00 82 1033.2
20260502105507 54 51 1.0 2.0 0.00 0.00 0.00 82 1033.1
20260502105006 54 52 2.0 2.0 0.00 0.00 0.00 82 1033.1
20260502103506 54 56 1.0 2.0 0.00 0.00 0.00 82 1033.1
20260502102505 54 77 1.0 2.0 0.00 0.00 0.00 81 1033.0
20260502102008 54 80 1.0 2.0 0.00 0.00 0.00 81 1032.9
20260502101505 54 74 1.0 2.0 0.00 0.00 0.00 81 1033.2
20260502100506 54 61 1.0 2.0 0.00 0.00 0.00 81 1033.1
20260502091506 55 60 1.0 3.0 0.00 0.00 0.00 81 1032.6
20260502090505 55 36 0.0 2.0 0.00 0.00 0.00 81 1032.3
20260502071507 58 91 1.0 3.0 0.00 0.00 0.00 78 1032.0
20260502070505 58 102 1.0 3.0 0.00 0.00 0.00 78 1031.9
20260502065006 58 83 1.0 2.0 0.00 0.00 0.00 78 1031.9
20260502063006 59 49 1.0 2.0 0.00 0.00 0.00 77 1031.9
20260502061005 59 110 2.0 3.0 0.00 0.00 0.00 77 1031.5
20260502060506 59 68 1.0 2.0 0.00 0.00 0.00 76 1031.3
20260502055006 60 355 1.0 2.0 0.00 0.00 0.00 76 1031.2
20260502054506 60 11 1.0 2.0 0.00 0.00 0.00 75 1031.3
20260502053005 60 354 1.0 2.0 0.00 0.00 0.00 75 1031.2
20260502051005 61 57 2.0 3.0 0.00 0.00 0.00 74 1031.0
20260502050506 61 102 2.0 3.0 0.00 0.00 0.00 73 1031.3
20260502050006 61 119 1.0 3.0 0.00 0.00 0.00 73 1031.1
20260502045005 61 98 2.0 3.0 0.00 0.00 0.00 74 1031.0
20260502044007 62 66 2.0 5.0 0.00 0.00 0.00 73 1030.9
20260502042506 62 54 2.0 5.0 0.00 0.00 0.00 72 1031.3
20260502041505 63 61 3.0 6.0 0.00 0.00 0.00 71 1031.2
20260502041006 63 92 2.0 5.0 0.00 0.00 0.00 72 1031.3
20260502040005 63 75 2.0 5.0 0.00 0.00 0.00 71 1031.2
20260502035507 63 73 3.0 6.0 0.00 0.00 0.00 71 1031.1
20260502034507 63 42 4.0 6.0 0.00 0.00 0.00 71 1031.3
20260502034005 63 33 1.0 3.0 0.00 0.00 0.00 70 1031.2
20260502033505 64 92 2.0 5.0 0.00 0.00 0.00 70 1031.3
20260502033005 64 66 3.0 7.0 0.00 0.00 0.00 68 1031.3
20260502025505 65 47 3.0 7.0 0.00 0.00 0.00 67 1031.5
20260502025005 65 93 2.0 8.0 0.00 0.00 0.00 67 1031.7
20260502024507 65 125 4.0 7.0 0.00 0.00 0.00 66 1031.5
20260502023007 65 135 4.0 7.0 0.00 0.00 0.00 67 1031.6
20260502021507 65 47 5.0 9.0 0.00 0.00 0.00 69 1031.7
20260502021007 65 72 3.0 8.0 0.00 0.00 0.00 67 1031.7
20260502015507 64 109 5.0 9.0 0.00 0.00 0.00 68 1031.9
20260502015006 65 99 6.0 12.0 0.00 0.00 0.00 68 1031.8
20260502013007 65 135 5.0 10.0 0.00 0.00 0.00 68 1032.2
20260502011005 65 73 5.0 9.0 0.00 0.00 0.00 68 1032.4
20260502010505 65 118 4.0 7.0 0.00 0.00 0.00 69 1032.5
20260502005006 65 89 5.0 9.0 0.00 0.00 0.00 70 1032.7
20260502004505 64 85 6.0 9.0 0.00 0.00 0.00 70 1032.8
20260502001505 64 120 6.0 10.0 0.00 0.00 0.00 70 1033.1
20260502001004 63 109 6.0 10.0 0.00 0.00 0.00 71 1033.2
20260502000505 63 91 6.0 10.0 0.00 0.00 0.00 70 1033.2
20260501234505 63 93 7.0 15.0 0.00 0.00 0.00 71 1033.4
20260501233506 63 82 7.0 13.0 0.00 0.00 0.00 72 1033.7
20260501232505 62 91 7.0 14.0 0.00 0.00 0.00 73 1033.8
20260501232005 62 98 7.0 13.0 0.00 0.00 0.00 74 1033.6
20260501230006 61 87 6.0 12.0 0.00 0.00 0.00 75 1034.0
20260501225505 61 89 5.0 10.0 0.00 0.00 0.00 77 1033.8
20260501225005 60 107 3.0 9.0 0.00 0.00 0.00 78 1034.0
20260501224506 60 95 5.0 13.0 0.00 0.00 0.00 78 1034.0
20260501223504 59 83 5.0 9.0 0.00 0.00 0.00 79 1034.1
20260501222505 59 94 7.0 12.0 0.00 0.00 0.00 78 1034.2
20260501221504 58 80 7.0 10.0 0.00 0.00 0.00 79 1034.2
20260501220506 58 95 5.0 8.0 0.00 0.00 0.00 80 1034.2
20260501215005 57 132 3.0 8.0 0.00 0.00 0.00 82 1034.3
20260501214505 56 113 3.0 8.0 0.00 0.00 0.00 83 1034.2
20260501213507 55 141 6.0 9.0 0.00 0.00 0.00 83 1034.2
20260501213005 55 150 5.0 9.0 0.00 0.00 0.00 82 1034.3
20260501212505 55 144 5.0 9.0 0.00 0.00 0.00 82 1034.2
20260501212006 54 140 5.0 8.0 0.00 0.00 0.00 84 1034.3
20260501211005 53 94 6.0 10.0 0.00 0.00 0.00 84 1034.5
20260501210006 53 86 5.0 9.0 0.00 0.00 0.00 85 1034.3
20260501203504 51 106 4.0 7.0 0.00 0.00 0.00 87 1034.0
20260501202505 50 106 4.0 6.0 0.00 0.00 0.00 89 1034.1
20260501202005 49 108 3.0 6.0 0.00 0.00 0.00 90 1034.2
20260501200505 48 79 6.0 8.0 0.00 0.00 0.00 90 1034.0
20260501200005 48 85 3.0 6.0 0.00 0.00 0.00 90 1033.8
20260501195004 48 104 3.0 6.0 0.00 0.00 0.00 90 1033.9
20260501194006 48 97 4.0 7.0 0.00 0.00 0.00 90 1033.9
20260501193005 48 82 4.0 8.0 0.00 0.00 0.00 90 1033.8
20260501192504 48 71 5.0 6.0 0.00 0.00 0.00 90 1033.7
20260501191505 48 72 5.0 6.0 0.00 0.00 0.00 90 1033.7
20260501191004 48 82 3.0 6.0 0.00 0.00 0.00 90 1033.8
20260501190505 48 68 5.0 6.0 0.00 0.00 0.00 90 1033.6
20260501190007 48 74 5.0 6.0 0.00 0.00 0.00 90 1033.7
20260501185004 48 82 5.0 7.0 0.00 0.00 0.00 90 1033.5
20260501184006 48 76 5.0 8.0 0.00 0.00 0.00 90 1033.4
20260501181506 48 81 5.0 8.0 0.00 0.00 0.00 90 1033.4
20260501181005 49 84 4.0 7.0 0.00 0.00 0.00 90 1033.2
20260501180506 48 101 3.0 7.0 0.00 0.00 0.00 90 1033.2
20260501174504 49 92 3.0 6.0 0.00 0.00 0.00 90 1033.5
20260501172504 49 67 2.0 7.0 0.00 0.00 0.00 90 1033.5